Terminal Aerodrome Forecast
Issued by NWS Upton, NY

Home | Current Version | Previous Version | Text Only | Print | Product List | Glossary On
Versions: 1 2 3 4 5 6 7 8 9 10 11 12 13 14 15 16 17 18 19 20 21 22 23 24 25 26 27 28 29 30 31 32
000
FTUS41 KOKX 010520
TAFEWR
TAF
KEWR 010520Z 0106/0212 17007KT 6SM BR VCSH SCT006 BKN015
      TEMPO 0108/0112 4SM TSRA BKN015CB
     FM011200 22006KT 6SM -SHRA BR VCTS BKN012CB
     FM011500 24010G18KT P6SM SCT025 BKN040
     FM011800 24015G22KT P6SM BKN050
     FM020100 27011KT P6SM BKN050
     FM020600 32006KT P6SM SCT050 BKN250=

USA.gov is the U.S. government's official web portal to all federal, state and local government web resources and services.